User: anonymous   Login
Location: Unspecified
(0.0000°N, 0.0000°E)
Time: 06:45:49
(UTC+00:00)
Language:

STARLINK-31007 - Orbit

View from above orbital plane
View from above orbital plane
View from above satellite
View from above satellite

Ground track
Ground track

The orbit is defined by the following mean orbital elements,

1 58889U          26145.47960051 +.00000000 +00000-0 +79866-4 0 00001
2 58889  53.1625 325.3388 0001141  93.2433 266.8700 15.34385707    07
Epoch (UTC): 25 May 2026 11:30:37
Eccentricity: 0.0001141
inclination: 53.1625°
perigee height: 462 km
apogee height: 464 km
right ascension of ascending node: 325.3388°
argument of perigee: 93.2433°
revolutions per day: 15.34385707
mean anomaly at epoch: 266.8700°

The dashed part of the orbit path shows where the satellite is in the earth's shadow,  

DLR